Wind_Speed
31 28 23 20 20 20 16 12 14 7 5 8 9 11 14 16 17 18 18 20 21 21 23 27 29 31 31 32 33 34 32 32
37 34 31 23 22 22 18 16 17 12 9 8 8 9 12 16 18 21 24 24 23 24 24 27 30 31 35 35 36 36 36 38
37 35 37 34 26 25 21 21 20 19 16 14 11 10 11 12 14 18 23 27 29 28 25 27 30 33 35 38 38 39 41 41
40 40 39 37 30 29 26 27 27 25 23 19 18 15 14 14 14 15 17 22 27 28 29 28 31 30 35 39 41 40 42 43
44 42 41 40 33 34 31 30 31 31 28 25 24 24 21 20 15 16 18 20 23 26 29 31 32 32 33 36 41 44 44 43
43 39 37 39 35 32 32 31 33 33 29 28 27 27 29 27 23 20 19 22 22 24 25 30 32 33 32 35 39 43 46 45
35 39 40 38 35 35 34 32 34 33 31 30 29 31 31 29 28 25 25 24 25 24 24 25 28 31 33 36 37 40 42 45
36 40 43 39 35 36 39 38 36 35 33 30 31 35 34 30 31 30 30 30 30 31 30 28 29 30 33 36 39 40 41 44
42 43 42 38 37 36 39 41 41 38 34 32 34 36 33 32 32 31 32 34 35 36 35 35 34 32 32 34 37 40 41 42
42 42 38 40 37 39 38 43 42 38 34 33 37 35 34 32 33 33 34 36 38 38 39 38 39 37 35 36 36 39 42 43
41 42 38 39 42 43 41 40 41 39 35 36 36 35 35 35 34 36 38 40 40 40 40 41 41 41 39 39 40 42 42 44
43 41 38 40 43 46 43 44 42 40 38 37 37 36 36 37 38 40 42 42 43 43 42 44 44 44 44 41 41 42 44 44
46 41 37 40 44 43 40 41 41 42 38 35 34 36 38 40 42 43 44 46 46 46 46 48 47 48 48 45 43 44 46 47
46 41 40 39 41 38 36 35 40 41 38 37 39 41 43 43 44 45 46 47 48 48 49 51 50 51 53 51 46 46 48 46
46 42 43 47 42 41 38 38 41 41 41 39 44 42 43 43 44 46 48 48 48 50 52 51 52 58 58 49 45 45 47 50
46 48 53 50 45 41 40 44 48 48 46 44 44 45 45 46 48 49 48 48 49 49 51 59 65 63 51 43 42 44 47 49
53 54 47 49 47 46 51 53 55 53 52 51 49 48 49 51 50 50 50 48 50 58 60 60 57 50 44 44 42 45 48 53
54 56 55 53 54 54 54 55 58 57 58 55 49 50 49 51 50 49 51 55 59 59 61 57 50 44 45 44 44 46 49 51
59 60 59 60 59 57 58 60 63 63 61 53 51 50 52 53 56 54 57 59 57 60 55 49 45 45 45 46 48 50 51 52
Wind_Direction
268 265 256 254 238 245 239 254 275 280 310 325 328 326 324 317 307 302 298 288 288 282 275 273 267 262 264 262 259 257 252 251
259 267 271 257 243 241 241 245 258 273 272 291 304 316 329 323 320 312 302 296 290 284 277 273 271 267 261 262 262 261 258 253
250 253 258 265 247 241 242 244 252 264 273 272 281 296 305 311 310 310 304 302 298 289 282 276 273 269 265 261 261 262 261 261
247 251 256 254 249 242 237 239 246 253 264 273 276 280 289 302 314 323 325 306 301 296 285 283 276 271 271 266 262 258 260 261
249 251 253 255 247 236 235 238 243 250 259 266 274 280 279 287 296 309 321 321 318 306 297 288 284 277 276 270 269 266 263 260
253 249 251 249 249 240 238 239 240 248 254 261 269 277 280 287 293 302 311 313 317 312 303 294 292 287 279 278 274 274 272 267
240 238 240 245 246 246 244 243 242 245 251 259 269 275 277 283 291 297 303 309 313 317 310 307 298 289 284 278 274 273 273 272
241 241 244 245 239 242 245 247 246 249 251 257 265 271 275 283 287 293 299 303 306 311 314 318 312 298 289 283 276 273 274 273
244 244 247 246 240 237 242 247 250 253 254 259 265 266 274 279 286 292 296 298 300 303 309 312 314 307 292 283 281 278 275 271
250 253 249 244 239 237 243 245 248 252 256 260 263 268 272 279 284 291 293 294 296 298 302 307 310 314 304 290 283 280 278 276
254 256 253 248 242 240 240 244 251 254 257 261 266 270 275 280 285 288 290 292 294 295 296 303 304 308 308 296 286 280 278 278
248 251 252 247 241 241 242 243 246 253 258 261 264 271 275 279 283 285 286 289 291 291 293 298 299 300 307 297 288 282 279 277
253 250 243 242 244 242 239 244 251 251 259 260 263 269 274 277 279 280 283 285 287 287 289 294 296 296 302 296 288 283 277 276
259 252 249 248 248 245 246 253 252 260 261 263 266 270 272 273 275 277 280 281 283 284 288 289 291 293 297 296 284 277 276 270
252 240 240 244 251 250 256 259 261 261 258 259 266 267 270 272 275 276 276 277 280 282 284 286 289 293 295 289 279 274 275 275
239 231 235 246 249 250 252 254 258 263 262 266 267 273 276 274 274 273 275 276 279 282 285 290 291 291 288 279 278 275 273 274
231 235 236 239 240 248 252 254 257 260 263 268 271 272 270 270 270 272 273 275 280 286 289 286 288 286 281 282 279 280 274 270
228 231 235 240 245 252 252 251 251 254 259 266 266 265 265 269 269 270 272 276 283 283 284 284 285 279 283 285 279 274 271 271
229 234 242 248 248 247 247 249 252 257 261 261 261 263 264 268 269 271 277 279 278 282 284 285 281 286 289 286 283 279 276 275
Height
5861 5864 5870 5874 5876 5876 5877 5875 5875 5873 5872 5870 5869 5867 5866 5865 5864 5862 5862 5861 5859 5859 5857 5856 5855 5857 5857 5857 5856 5856 5856 5856
5854 5856 5857 5866 5870 5870 5870 5870 5869 5870 5870 5869 5867 5866 5864 5862 5859 5858 5856 5855 5855 5854 5853 5851 5850 5848 5848 5849 5850 5849 5849 5848
5850 5852 5852 5855 5860 5863 5864 5865 5864 5864 5865 5866 5864 5863 5862 5861 5859 5856 5852 5849 5847 5847 5847 5846 5845 5844 5841 5841 5841 5842 5841 5840
5843 5844 5844 5847 5851 5855 5856 5858 5859 5859 5860 5860 5859 5859 5858 5857 5856 5853 5850 5846 5842 5840 5839 5839 5837 5837 5837 5834 5834 5833 5833 5833
5836 5837 5838 5838 5844 5846 5849 5851 5852 5852 5854 5854 5853 5853 5853 5852 5851 5848 5846 5843 5839 5835 5832 5831 5830 5830 5829 5829 5827 5827 5827 5825
5829 5831 5829 5830 5835 5839 5841 5843 5844 5845 5846 5847 5847 5847 5845 5844 5842 5841 5840 5838 5835 5831 5828 5825 5823 5822 5822 5821 5820 5819 5818 5818
5819 5820 5821 5823 5828 5829 5833 5835 5835 5838 5838 5839 5839 5839 5838 5836 5834 5833 5832 5831 5829 5827 5823 5820 5818 5816 5814 5813 5812 5811 5811 5809
5810 5812 5813 5815 5819 5822 5823 5825 5826 5829 5830 5831 5831 5831 5829 5827 5826 5825 5824 5822 5821 5818 5816 5814 5811 5808 5806 5804 5803 5803 5802 5801
5799 5802 5805 5807 5811 5812 5813 5814 5816 5818 5820 5821 5822 5821 5820 5819 5818 5817 5816 5814 5812 5810 5808 5806 5804 5802 5798 5796 5794 5794 5793 5792
5790 5791 5796 5799 5802 5802 5804 5805 5807 5809 5810 5811 5811 5811 5811 5810 5810 5809 5807 5806 5805 5803 5801 5798 5795 5793 5791 5788 5786 5784 5783 5783
5781 5783 5785 5790 5792 5793 5794 5796 5797 5799 5800 5801 5801 5801 5801 5801 5800 5800 5799 5797 5795 5794 5792 5789 5787 5785 5783 5780 5777 5776 5774 5772
5771 5773 5776 5777 5779 5781 5784 5786 5788 5789 5789 5790 5790 5790 5791 5791 5791 5790 5789 5788 5786 5784 5782 5779 5778 5776 5773 5770 5767 5764 5763 5762
5757 5762 5765 5766 5768 5771 5775 5776 5778 5778 5779 5780 5780 5781 5781 5781 5781 5781 5779 5778 5776 5774 5771 5769 5768 5765 5762 5759 5756 5754 5752 5750
5746 5750 5754 5757 5759 5760 5764 5766 5767 5767 5769 5771 5771 5772 5772 5772 5772 5771 5769 5767 5765 5762 5760 5759 5756 5753 5750 5746 5743 5742 5740 5738
5732 5738 5741 5744 5746 5749 5751 5753 5754 5756 5758 5761 5762 5762 5762 5762 5761 5759 5758 5756 5754 5751 5749 5746 5744 5740 5736 5733 5730 5728 5727 5726
5719 5723 5727 5730 5733 5736 5738 5741 5742 5744 5746 5749 5748 5748 5749 5748 5747 5746 5745 5743 5741 5739 5736 5733 5728 5725 5723 5720 5718 5716 5715 5713
5704 5708 5712 5716 5720 5724 5726 5729 5730 5731 5733 5734 5735 5735 5735 5735 5734 5733 5731 5729 5727 5725 5722 5717 5714 5711 5709 5707 5706 5704 5701 5699
5689 5694 5697 5702 5707 5710 5713 5715 5716 5718 5719 5721 5722 5722 5723 5720 5720 5719 5718 5717 5715 5712 5708 5704 5700 5698 5697 5694 5692 5690 5687 5684
5675 5679 5684 5687 5691 5693 5696 5698 5698 5702 5704 5707 5709 5708 5707 5707 5703 5703 5702 5700 5698 5695 5692 5689 5687 5684 5682 5679 5677 5674 5672 5670